FENGYUN 1C DEB

Satellite information

Favourite Embed

Satellite Type and Status

DEBRISIN ORBIT

Key statistics

Satellite FENGYUN 1C DEB at a glance.

Uptime

9494

Days in orbit

Revolutions

≈ 14.2

Per day

Orbit

SSO

Sun Synchronous Orbit

Inclination

98.5

Latest

Satellite identification and parameters

Extended collection of information and parameters for FENGYUN 1C DEB.

Object identification

Identified? True

Debris? True

Object name: FENGYUN 1C DEB

International designator: 1999-025AHB

Object number (NORAD): 30489

Object ID (CCSDS): 30489

Country: PEOPLES REPUBLIC OF CHINA (PRC)

Current information (Y/N): Y

RCS size: SMALL

Orbital parameters

Period: 101.728 minutes

Inclination: 98.4808 deg

SMA: 7218.633 km

Apoapsis: 942.019 km

Periapsis: 738.977 km

RAAN: 151.9105 deg

Eccentricy: 0.0140638

Argument of periapsis: 179.4206 deg

Mean anomaly: 197.7211 deg

Mean motion: 14.1553402 rev/day

Mean motion (dot): 0.00000613 rev/day2

B* drag term: 0.00030402 1/REarth

Two-line elements (TLE)

Creation date: May 7, 2025, 3:14 a.m.

Reference frame: TEME

Reference center: EARTH

Epoch: May 6, 2025, 8:31 a.m. UTC

TLE line 0: 0 FENGYUN 1C DEB

TLE line 1: 1 30489U 99025AHB 25126.35530338 .00000613 00000-0 30402-3 0 9997

TLE line 2: 2 30489 98.4808 151.9105 0140638 179.4206 197.7211 14.15534020942699

Live tracking on map

Real-time ground track for satellite FENGYUN 1C DEB.

In-orbit conjunctions

A list of the most updated potential collisions computed for object FENGYUN 1C DEB.

Target Orbit TCA Probability of collision Miss distance Type
METEOR 2-5 DEB LEO 2025-02-09 15:02:57 0.002392194 44.0 (m) DEBRIS

Associated space launch

Chinese polar orbiting meteorological satellite

FENGYUN 1C DEB was lifted into orbit during the mission ‘Long March 4B | Feng Yun 1C’, on board a Long March 4B space rocket.

The launch took place on May 10, 1999, 1:33 a.m. from Launch Complex 7.

For more information about the launch, click the button.

Launch to space Long March 4B | Feng Yun 1C
Long March 4B | Feng Yun 1C

Agency: N/A

Status: Launch Successful

Launch date: May 10, 1999, 1:33 a.m. UTC

Rocket: Long March 4B

Launch pad: Launch Complex 7

Location: Taiyuan Satellite Launch Center, People's Republic of China

...

Latest news about this satellite

There are no fresh news available about this satellite. Check back as we update our databases every day.


Newsletter sign-up

Weekly statistics, charts and insights to help you stay on top of the space industry.